GW5041 Weather Reports


time (UTC)temp
C
wind
direction
speed
KPH
gust
KPH
rain 1hr
cm
rain 24hr
cm
rain mn
cm
humidity
%
barometer
mb
20260906181329 37 318 0.0 1.6 0.00 0.00 0.00 47 1016.7
20260906180829 37 321 1.6 1.6 0.00 0.00 0.00 46 1016.8
20260906180324 37 21 0.0 1.6 0.00 0.00 0.00 47 1017.0
20260906175821 36 310 3.2 3.2 0.00 0.00 0.00 49 1017.1
20260906175317 36 349 0.0 1.6 0.00 0.00 0.00 52 1017.2
20260906174816 36 343 0.0 1.6 0.00 0.00 0.00 51 1017.0
20260906174309 36 345 0.0 1.6 0.00 0.00 0.00 52 1017.1
20260906173804 36 343 1.6 1.6 0.00 0.00 0.00 51 1017.3
20260906173300 36 354 1.6 3.2 0.00 0.00 0.00 50 1017.4
20260906172759 36 265 3.2 4.8 0.00 0.00 0.00 49 1017.5
20260906172256 36 342 1.6 4.8 0.00 0.00 0.00 51 1017.4
20260906171755 37 341 0.0 3.2 0.00 0.00 0.00 48 1017.6
20260906171251 36 336 0.0 1.6 0.00 0.00 0.00 51 1017.7
20260906170746 36 326 0.0 3.2 0.00 0.00 0.00 49 1017.9
20260906170236 36 274 1.6 1.6 0.00 0.00 0.00 49 1017.8
20260906165732 37 15 0.0 3.2 0.00 0.00 0.00 53 1018.1
20260906165227 37 350 0.0 1.6 0.00 0.00 0.00 47 1017.9
20260906164726 37 332 0.0 1.6 0.00 0.00 0.00 49 1017.9
20260906164227 37 312 0.0 1.6 0.00 0.00 0.00 49 1018.2
20260906163723 37 1 3.2 4.8 0.00 0.00 0.00 50 1018.2
20260906163219 36 351 0.0 3.2 0.00 0.00 0.00 52 1017.9
20260906162715 36 350 1.6 4.8 0.00 0.00 0.00 52 1017.9
20260906162210 36 342 0.0 1.6 0.00 0.00 0.00 52 1018.2
20260906161704 37 328 0.0 3.2 0.00 0.00 0.00 52 1017.9
20260906161204 37 355 1.6 3.2 0.00 0.00 0.00 51 1017.9
20260906160703 37 308 0.0 1.6 0.00 0.00 0.00 50 1017.9
20260906160202 36 342 0.0 1.6 0.00 0.00 0.00 54 1017.8
20260906155659 36 326 1.6 1.6 0.00 0.00 0.00 55 1017.7
20260906155155 35 348 0.0 3.2 0.00 0.00 0.00 56 1017.8
20260906154650 35 359 0.0 1.6 0.00 0.00 0.00 55 1017.8
20260906154150 35 6 1.6 1.6 0.00 0.00 0.00 54 1017.7
20260906153649 36 348 1.6 3.2 0.00 0.00 0.00 55 1017.8
20260906153145 35 359 0.0 1.6 0.00 0.00 0.00 56 1017.7
20260906152644 35 350 0.0 4.8 0.00 0.00 0.00 56 1017.7
20260906152138 35 304 0.0 1.6 0.00 0.00 0.00 56 1017.6
20260906151633 35 326 1.6 3.2 0.00 0.00 0.00 55 1017.7
20260906151129 34 14 1.6 1.6 0.00 0.00 0.00 57 1017.8
20260906150624 34 5 0.0 1.6 0.00 0.00 0.00 59 1017.9
20260906150120 34 350 1.6 3.2 0.00 0.00 0.00 58 1017.7
20260906145619 33 319 0.0 1.6 0.00 0.00 0.00 60 1017.7
20260906145114 33 354 1.6 3.2 0.00 0.00 0.00 61 1017.7
20260906144608 33 0 0.0 3.2 0.00 0.00 0.00 61 1017.8
20260906144104 33 346 1.6 3.2 0.00 0.00 0.00 59 1017.9
20260906143604 32 357 0.0 3.2 0.00 0.00 0.00 62 1017.8
20260906143100 32 356 0.0 1.6 0.00 0.00 0.00 62 1017.8
20260906142559 32 359 0.0 1.6 0.00 0.00 0.00 63 1017.8
20260906142055 31 338 0.0 1.6 0.00 0.00 0.00 66 1017.8
20260906141554 30 355 1.6 1.6 0.00 0.00 0.00 67 1017.5
20260906141049 30 337 0.0 1.6 0.00 0.00 0.00 69 1017.5
20260906140548 28 359 0.0 1.6 0.00 0.00 0.00 72 1017.6
20260906140043 28 355 0.0 1.6 0.00 0.00 0.00 74 1017.6
20260906135540 28 346 0.0 1.6 0.00 0.00 0.00 73 1017.5
20260906135036 27 343 0.0 3.2 0.00 0.00 0.00 74 1017.6
20260906134531 27 346 0.0 1.6 0.00 0.00 0.00 76 1017.6
20260906134025 27 341 0.0 0.0 0.00 0.00 0.00 77 1017.4
20260906133522 27 351 0.0 3.2 0.00 0.00 0.00 77 1017.4
20260906133017 26 353 0.0 0.0 0.00 0.00 0.00 79 1017.5
20260906132512 26 346 0.0 0.0 0.00 0.00 0.00 79 1017.3
20260906132007 26 348 0.0 0.0 0.00 0.00 0.00 81 1017.3
20260906131502 25 329 1.6 3.2 0.00 0.00 0.00 81 1017.3
20260906130958 25 348 0.0 0.0 0.00 0.00 0.00 82 1017.0
20260906130457 25 349 0.0 0.0 0.00 0.00 0.00 83 1017.0
20260906125951 24 346 0.0 0.0 0.00 0.00 0.00 84 1017.1
20260906125449 24 350 0.0 0.0 0.00 0.00 0.00 86 1016.9
20260906124948 23 354 0.0 0.0 0.00 0.00 0.00 87 1016.9
20260906124445 23 349 0.0 0.0 0.00 0.00 0.00 89 1016.8
20260906123939 22 350 0.0 0.0 0.00 0.00 0.00 91 1016.7
20260906123438 22 351 0.0 0.0 0.00 0.00 0.00 91 1016.6
20260906122933 22 351 0.0 0.0 0.00 0.00 0.00 91 1016.7
20260906122427 22 349 0.0 0.0 0.00 0.00 0.00 92 1016.8
20260906121924 22 350 0.0 0.0 0.00 0.00 0.00 91 1016.5
20260906121420 22 349 0.0 0.0 0.00 0.00 0.00 91 1016.5
20260906120916 22 349 0.0 0.0 0.00 0.00 0.00 91 1016.6
20260906120412 22 348 0.0 0.0 0.00 0.00 0.00 91 1016.5
20260906115908 22 349 0.0 0.0 0.00 0.00 0.00 91 1016.4
20260906115403 22 348 0.0 0.0 0.00 0.00 0.00 91 1016.5
20260906114902 22 349 0.0 0.0 0.00 0.00 0.00 91 1016.5
20260906114357 22 350 0.0 0.0 0.00 0.00 0.00 91 1016.6
20260906113853 22 350 0.0 0.0 0.00 0.00 0.00 91 1016.6
20260906113352 22 348 0.0 0.0 0.00 0.00 0.00 91 1016.5
20260906112847 22 350 0.0 0.0 0.00 0.00 0.00 91 1016.4
20260906112343 22 349 0.0 0.0 0.00 0.00 0.00 91 1016.5
20260906111837 22 355 0.0 0.0 0.00 0.00 0.00 91 1016.5
20260906111331 22 347 0.0 0.0 0.00 0.00 0.00 91 1016.4
20260906110826 22 347 0.0 0.0 0.00 0.00 0.00 91 1016.5
20260906110322 22 350 0.0 0.0 0.00 0.00 0.00 91 1016.2
20260906105821 22 349 0.0 0.0 0.00 0.00 0.00 91 1016.3
20260906105317 22 348 0.0 0.0 0.00 0.00 0.00 91 1016.3
20260906104813 22 348 0.0 0.0 0.00 0.00 0.00 90 1016.5
20260906104311 22 348 0.0 0.0 0.00 0.00 0.00 90 1016.4
20260906103810 22 348 0.0 0.0 0.00 0.00 0.00 90 1016.3
20260906103309 22 348 0.0 0.0 0.00 0.00 0.00 90 1016.3
20260906102805 22 348 0.0 0.0 0.00 0.00 0.00 90 1016.1
20260906102306 22 348 0.0 0.0 0.00 0.00 0.00 90 1016.4
20260906101759 22 348 0.0 0.0 0.00 0.00 0.00 89 1016.1
20260906101254 22 348 0.0 0.0 0.00 0.00 0.00 89 1016.2
20260906100749 23 348 0.0 0.0 0.00 0.00 0.00 89 1016.1
20260906100248 23 348 0.0 0.0 0.00 0.00 0.00 89 1016.0
20260906095744 23 348 0.0 0.0 0.00 0.00 0.00 89 1016.1
20260906095239 23 349 0.0 0.0 0.00 0.00 0.00 89 1016.0
20260906094738 23 350 0.0 0.0 0.00 0.00 0.00 88 1016.1
20260906094233 23 348 0.0 0.0 0.00 0.00 0.00 88 1016.0
20260906093730 23 349 0.0 0.0 0.00 0.00 0.00 88 1016.0
20260906093225 23 349 0.0 0.0 0.00 0.00 0.00 88 1016.0
20260906092721 23 346 0.0 0.0 0.00 0.00 0.00 88 1016.1
20260906092220 23 349 0.0 0.0 0.00 0.00 0.00 88 1016.0
20260906091716 23 349 0.0 0.0 0.00 0.00 0.00 87 1015.9
20260906091212 23 349 0.0 0.0 0.00 0.00 0.00 87 1015.9
20260906090708 23 352 0.0 0.0 0.00 0.00 0.00 87 1015.9
20260906090208 23 349 0.0 0.0 0.00 0.00 0.00 87 1015.9
20260906085707 23 349 0.0 0.0 0.00 0.00 0.00 87 1015.8
20260906085206 23 349 0.0 0.0 0.00 0.00 0.00 87 1015.8
20260906084701 23 348 0.0 0.0 0.00 0.00 0.00 87 1015.8
20260906084201 23 350 0.0 0.0 0.00 0.00 0.00 87 1015.6
20260906083655 23 350 0.0 0.0 0.00 0.00 0.00 87 1015.7
20260906083151 23 347 0.0 0.0 0.00 0.00 0.00 87 1015.5
20260906082646 23 349 0.0 0.0 0.00 0.00 0.00 87 1015.7
20260906082141 23 349 0.0 0.0 0.00 0.00 0.00 86 1015.7
20260906081637 23 349 0.0 0.0 0.00 0.00 0.00 86 1015.7
20260906081132 23 349 0.0 0.0 0.00 0.00 0.00 86 1015.8
20260906080629 23 349 0.0 0.0 0.00 0.00 0.00 87 1015.8
20260906080125 23 349 0.0 0.0 0.00 0.00 0.00 86 1015.6
20260906075624 23 349 0.0 0.0 0.00 0.00 0.00 86 1015.6
20260906075119 23 349 0.0 0.0 0.00 0.00 0.00 86 1015.7
20260906074614 23 348 0.0 0.0 0.00 0.00 0.00 85 1015.7
20260906074113 23 348 0.0 0.0 0.00 0.00 0.00 85 1015.7
20260906073608 23 348 0.0 0.0 0.00 0.00 0.00 85 1015.7
20260906073104 24 348 0.0 0.0 0.00 0.00 0.00 84 1015.7
20260906072558 24 348 0.0 0.0 0.00 0.00 0.00 84 1015.6
20260906072055 24 348 0.0 0.0 0.00 0.00 0.00 83 1015.8
20260906071551 24 348 0.0 0.0 0.00 0.00 0.00 83 1015.6
20260906071050 24 348 0.0 0.0 0.00 0.00 0.00 83 1015.6
20260906070548 25 348 0.0 0.0 0.00 0.00 0.00 83 1015.7
20260906070043 25 348 0.0 0.0 0.00 0.00 0.00 83 1015.7
20260906065542 25 348 0.0 0.0 0.00 0.00 0.00 83 1015.8
20260906065038 25 348 0.0 0.0 0.00 0.00 0.00 83 1015.7
20260906064534 25 349 0.0 0.0 0.00 0.00 0.00 83 1015.8
20260906064028 25 349 0.0 0.0 0.00 0.00 0.00 82 1015.9
20260906063524 25 349 0.0 0.0 0.00 0.00 0.00 83 1015.9
20260906063020 25 349 0.0 0.0 0.00 0.00 0.00 83 1015.8
20260906062514 25 349 0.0 0.0 0.00 0.00 0.00 82 1015.9
20260906062009 25 349 0.0 0.0 0.00 0.00 0.00 82 1015.9
20260906061505 25 349 0.0 0.0 0.00 0.00 0.00 83 1016.1
20260906060959 25 349 0.0 0.0 0.00 0.00 0.00 81 1015.9
20260906060456 25 349 0.0 0.0 0.00 0.00 0.00 82 1016.1
20260906055952 25 349 0.0 0.0 0.00 0.00 0.00 82 1016.1
20260906055448 25 349 0.0 0.0 0.00 0.00 0.00 81 1016.0
20260906054943 25 349 0.0 0.0 0.00 0.00 0.00 82 1016.2
20260906054443 25 349 0.0 0.0 0.00 0.00 0.00 82 1016.1
20260906053939 25 349 0.0 0.0 0.00 0.00 0.00 82 1016.3
20260906053435 25 349 0.0 0.0 0.00 0.00 0.00 82 1016.2
20260906052930 25 349 0.0 0.0 0.00 0.00 0.00 82 1016.2
20260906052426 25 349 0.0 0.0 0.00 0.00 0.00 82 1016.4
20260906051923 25 350 0.0 0.0 0.00 0.00 0.00 82 1016.2
20260906051424 25 350 0.0 0.0 0.00 0.00 0.00 82 1016.2
20260906050919 25 350 0.0 0.0 0.00 0.00 0.00 82 1016.3
20260906050419 25 350 0.0 0.0 0.00 0.00 0.00 82 1016.1
20260906045918 25 350 0.0 0.0 0.00 0.00 0.00 81 1016.2
20260906045417 25 350 0.0 0.0 0.00 0.00 0.00 82 1016.1
20260906044914 25 350 0.0 0.0 0.00 0.00 0.00 82 1016.3
20260906044413 25 350 0.0 0.0 0.00 0.00 0.00 82 1016.2
20260906043909 25 350 0.0 0.0 0.00 0.00 0.00 82 1016.4
20260906043405 26 350 0.0 0.0 0.00 0.00 0.00 82 1016.2
20260906042900 26 350 0.0 0.0 0.00 0.00 0.00 82 1016.2
20260906042359 26 350 0.0 0.0 0.00 0.00 0.00 81 1016.3
20260906041855 26 350 0.0 0.0 0.00 0.00 0.00 81 1016.2
20260906041350 26 350 0.0 0.0 0.00 0.00 0.00 80 1016.1
20260906040845 26 350 0.0 0.0 0.00 0.00 0.00 80 1016.2
20260906040341 26 350 0.0 0.0 0.00 0.00 0.00 80 1016.2
20260906035836 26 349 0.0 0.0 0.00 0.00 0.00 79 1016.1
20260906035331 26 348 0.0 0.0 0.00 0.00 0.00 79 1016.0
20260906034827 26 348 0.0 0.0 0.00 0.00 0.00 78 1016.1
20260906034327 27 347 0.0 0.0 0.00 0.00 0.00 78 1016.0
20260906033823 27 347 0.0 0.0 0.00 0.00 0.00 78 1015.9
20260906033321 27 350 0.0 0.0 0.00 0.00 0.00 77 1015.9
20260906032818 27 350 0.0 0.0 0.00 0.00 0.00 76 1015.8
20260906032314 27 350 0.0 0.0 0.00 0.00 0.00 76 1015.9
20260906031809 27 350 0.0 0.0 0.00 0.00 0.00 76 1015.9
20260906031304 27 350 0.0 0.0 0.00 0.00 0.00 75 1015.8
20260906030804 27 350 0.0 0.0 0.00 0.00 0.00 74 1015.8
20260906030259 27 350 0.0 0.0 0.00 0.00 0.00 74 1015.7
20260906025759 27 351 0.0 0.0 0.00 0.00 0.00 74 1015.7
20260906025253 28 351 0.0 0.0 0.00 0.00 0.00 73 1015.5
20260906024752 28 351 0.0 0.0 0.00 0.00 0.00 72 1015.4
20260906024251 28 351 0.0 0.0 0.00 0.00 0.00 72 1015.4
20260906023747 28 351 0.0 0.0 0.00 0.00 0.00 72 1015.3
20260906023242 28 351 0.0 0.0 0.00 0.00 0.00 71 1015.2
20260906022738 28 355 0.0 0.0 0.00 0.00 0.00 70 1015.1
20260906022233 29 356 0.0 0.0 0.00 0.00 0.00 69 1015.2
20260906021729 29 357 0.0 0.0 0.00 0.00 0.00 69 1015.1
20260906021227 29 354 0.0 0.0 0.00 0.00 0.00 68 1015.1
20260906020722 29 353 0.0 0.0 0.00 0.00 0.00 69 1015.0
20260906020217 30 350 0.0 0.0 0.00 0.00 0.00 68 1015.0
20260906015712 30 3 0.0 0.0 0.00 0.00 0.00 67 1014.9
20260906015210 30 354 0.0 0.0 0.00 0.00 0.00 67 1014.9
20260906014704 30 354 0.0 0.0 0.00 0.00 0.00 66 1014.8
20260906014200 30 352 0.0 0.0 0.00 0.00 0.00 66 1014.8
20260906013656 30 353 0.0 0.0 0.00 0.00 0.00 65 1014.8
20260906013151 30 346 0.0 0.0 0.00 0.00 0.00 65 1014.5
20260906012651 30 350 0.0 0.0 0.00 0.00 0.00 65 1014.4
20260906012151 30 349 0.0 0.0 0.00 0.00 0.00 65 1014.5
20260906011647 30 350 0.0 0.0 0.00 0.00 0.00 65 1014.4
20260906011142 30 351 0.0 0.0 0.00 0.00 0.00 65 1014.4
20260906010637 30 344 0.0 0.0 0.00 0.00 0.00 65 1014.4
20260906010134 30 350 0.0 0.0 0.00 0.00 0.00 64 1014.3
20260906005633 30 350 0.0 0.0 0.00 0.00 0.00 62 1014.3
20260906005132 30 351 0.0 0.0 0.00 0.00 0.00 62 1014.3
20260906004626 30 349 0.0 0.0 0.00 0.00 0.00 63 1014.2
20260906004121 31 349 0.0 0.0 0.00 0.00 0.00 60 1014.3
20260906003617 31 352 0.0 0.0 0.00 0.00 0.00 59 1014.1
20260906003112 31 352 0.0 0.0 0.00 0.00 0.00 58 1014.2
20260906002607 32 352 0.0 0.0 0.00 0.00 0.00 58 1014.0
20260906002101 32 352 0.0 0.0 0.00 0.00 0.00 56 1014.3
20260906001557 32 352 0.0 0.0 0.00 0.00 0.00 54 1014.2
20260906001056 33 352 0.0 0.0 0.00 0.00 0.00 53 1014.2
20260906000553 33 352 0.0 0.0 0.00 0.00 0.00 51 1014.3
20260906000048 33 352 0.0 0.0 0.00 0.00 0.00 51 1014.1
20260905235547 34 352 0.0 0.0 0.00 0.00 0.00 50 1014.1
20260905235042 34 352 0.0 0.0 0.00 0.00 0.00 50 1014.2
20260905234538 35 354 0.0 0.0 0.00 0.00 0.00 47 1014.2
20260905234032 35 352 0.0 0.0 0.00 0.00 0.00 47 1014.2
20260905233527 35 350 0.0 0.0 0.00 0.00 0.00 47 1014.1
20260905233026 35 346 0.0 0.0 0.00 0.00 0.00 45 1014.1
20260905232522 35 346 0.0 1.6 0.00 0.00 0.00 45 1014.1
20260905232018 35 348 0.0 0.0 0.00 0.00 0.00 46 1014.2
20260905231513 36 350 0.0 0.0 0.00 0.00 0.00 44 1014.0
20260905231009 36 346 0.0 1.6 0.00 0.00 0.00 43 1014.1
20260905230508 36 349 0.0 1.6 0.00 0.00 0.00 42 1013.8
20260905230007 36 342 0.0 0.0 0.00 0.00 0.00 43 1014.2
20260905225502 36 350 0.0 0.0 0.00 0.00 0.00 42 1014.1
20260905224957 36 350 0.0 0.0 0.00 0.00 0.00 42 1014.1
20260905224452 36 328 0.0 1.6 0.00 0.00 0.00 44 1014.1
20260905223951 36 352 0.0 0.0 0.00 0.00 0.00 43 1014.0
20260905223449 36 303 3.2 3.2 0.00 0.00 0.00 42 1014.2
20260905222944 36 348 0.0 0.0 0.00 0.00 0.00 42 1014.1
20260905222443 36 357 0.0 1.6 0.00 0.00 0.00 43 1014.1
20260905221939 36 350 0.0 1.6 0.00 0.00 0.00 43 1014.2
20260905221436 37 332 3.2 3.2 0.00 0.00 0.00 41 1014.3
20260905220931 37 24 1.6 3.2 0.00 0.00 0.00 42 1014.5
20260905220428 37 287 1.6 3.2 0.00 0.00 0.00 40 1014.3
20260905215927 38 350 1.6 1.6 0.00 0.00 0.00 41 1014.4
20260905215422 38 338 1.6 1.6 0.00 0.00 0.00 41 1014.4
20260905214918 38 348 0.0 1.6 0.00 0.00 0.00 41 1014.4
20260905214414 38 267 3.2 3.2 0.00 0.00 0.00 40 1014.5
20260905213913 39 339 3.2 4.8 0.00 0.00 0.00 38 1014.6
20260905213410 38 269 1.6 4.8 0.00 0.00 0.00 39 1014.9
20260905212905 38 336 1.6 4.8 0.00 0.00 0.00 39 1014.8
20260905212400 38 347 0.0 1.6 0.00 0.00 0.00 41 1014.6
20260905211859 38 338 4.8 4.8 0.00 0.00 0.00 39 1014.8
20260905211355 38 11 1.6 1.6 0.00 0.00 0.00 38 1014.9
20260905210851 40 287 3.2 4.8 0.00 0.00 0.00 38 1014.9
20260905210351 40 351 0.0 1.6 0.00 0.00 0.00 40 1014.8
20260905205849 40 336 1.6 3.2 0.00 0.00 0.00 39 1015.1
20260905205344 38 321 1.6 3.2 0.00 0.00 0.00 39 1015.1
20260905204844 38 354 1.6 3.2 0.00 0.00 0.00 40 1015.1
20260905204340 38 347 3.2 9.7 0.00 0.00 0.00 40 1015.2
20260905203838 38 330 1.6 1.6 0.00 0.00 0.00 40 1015.3
20260905203335 38 351 1.6 3.2 0.00 0.00 0.00 40 1015.4
20260905202830 39 325 3.2 4.8 0.00 0.00 0.00 38 1015.4
20260905202325 39 287 1.6 3.2 0.00 0.00 0.00 40 1015.5
20260905201821 39 359 0.0 6.4 0.00 0.00 0.00 38 1015.7
20260905201311 39 1 1.6 3.2 0.00 0.00 0.00 38 1015.7
20260905200810 40 328 0.0 3.2 0.00 0.00 0.00 41 1015.7
20260905200306 39 325 1.6 1.6 0.00 0.00 0.00 39 1015.8
20260905195804 38 347 1.6 3.2 0.00 0.00 0.00 39 1015.9
20260905195259 38 350 0.0 4.8 0.00 0.00 0.00 41 1015.9
20260905194755 38 38 1.6 1.6 0.00 0.00 0.00 40 1016.0
20260905194254 38 338 3.2 3.2 0.00 0.00 0.00 40 1016.0
20260905193748 38 350 4.8 4.8 0.00 0.00 0.00 39 1015.9
20260905193243 38 309 0.0 1.6 0.00 0.00 0.00 40 1015.9
20260905192738 38 346 1.6 3.2 0.00 0.00 0.00 40 1016.1
20260905192235 38 350 1.6 3.2 0.00 0.00 0.00 41 1016.0
20260905191734 37 341 0.0 1.6 0.00 0.00 0.00 44 1016.2
20260905191232 38 353 1.6 3.2 0.00 0.00 0.00 43 1016.2
20260905190731 38 13 0.0 3.2 0.00 0.00 0.00 44 1016.0
20260905190230 37 241 0.0 3.2 0.00 0.00 0.00 45 1016.2
20260905185729 37 3 1.6 6.4 0.00 0.00 0.00 44 1016.3
20260905185224 37 37 1.6 3.2 0.00 0.00 0.00 43 1016.4
20260905184719 37 349 0.0 0.0 0.00 0.00 0.00 44 1016.3
20260905184218 37 17 3.2 4.8 0.00 0.00 0.00 43 1016.4
20260905183717 38 290 4.8 9.7 0.00 0.00 0.00 43 1016.5
20260905183213 38 340 0.0 3.2 0.00 0.00 0.00 42 1016.6
20260905182707 37 298 3.2 3.2 0.00 0.00 0.00 43 1016.6
20260905182206 38 308 1.6 6.4 0.00 0.00 0.00 46 1016.7
20260905181701 38 343 1.6 4.8 0.00 0.00 0.00 47 1016.8